This is the latest recevied weather packets stored in our database for station/object W1RCY. If no packets are shown the sender has not sent any weather packets the latest 1 day(s).
| Time | Temp. | Humidity | Pressure | Rain* | Wind** | Luminosity | Snow |
|---|---|---|---|---|---|---|---|
| 1778003323 | 26.11° C | 42% | 1004 hPa | 0 mm | 5.36 m/s, 156° | 428 W/m² | - |
| 1778003021 | 25.56° C | 46% | 1004.3 hPa | 0 mm | 1.79 m/s, 191° | 274 W/m² | - |
| 1778002716 | 26.11° C | 43% | 1004.2 hPa | 0 mm | 5.36 m/s, 176° | 294 W/m² | - |
| 1778002413 | 26.11° C | 44% | 1004.3 hPa | 0 mm | 4.92 m/s, 202° | 733 W/m² | - |
| 1778002110 | 25.56° C | 45% | 1004.2 hPa | 0 mm | 4.92 m/s, 179° | 732 W/m² | - |
| 1778001808 | 25.56° C | 44% | 1004.5 hPa | 0 mm | 4.92 m/s, 167° | 626 W/m² | - |
| 1778001507 | 25.56° C | 45% | 1004.4 hPa | 0 mm | 2.68 m/s, 175° | 636 W/m² | - |
| 1778001205 | 25.56° C | 45% | 1004.4 hPa | 0 mm | 5.81 m/s, 181° | 657 W/m² | - |
| 1778000901 | 25.56° C | 44% | 1004.6 hPa | 0 mm | 4.47 m/s, 150° | 654 W/m² | - |
| 1778000598 | 25.56° C | 44% | 1004.7 hPa | 0 mm | 2.68 m/s, 270° | 650 W/m² | - |
| 1778000293 | 25.56° C | 44% | 1004.8 hPa | 0 mm | 4.02 m/s, 177° | 707 W/m² | - |
| 1777999989 | 25° C | 45% | 1004.8 hPa | 0 mm | 3.13 m/s, 200° | 688 W/m² | - |
| 1777999685 | 25.56° C | 47% | 1005.2 hPa | 0 mm | 4.92 m/s, 164° | 656 W/m² | - |
| 1777999383 | 25.56° C | 45% | 1005.1 hPa | 0 mm | 7.6 m/s, 166° | 758 W/m² | - |
| 1777999081 | 25° C | 46% | 1005.3 hPa | 0 mm | 5.36 m/s, 166° | 737 W/m² | - |
| 1777998779 | 24.44° C | 47% | 1005.5 hPa | 0 mm | 2.24 m/s, 241° | 674 W/m² | - |
| 1777998476 | 24.44° C | 48% | 1005.9 hPa | 0 mm | 4.47 m/s, 164° | 700 W/m² | - |
| 1777998173 | 24.44° C | 47% | 1006.1 hPa | 0 mm | 5.36 m/s, 164° | 692 W/m² | - |
| 1777997870 | 24.44° C | 47% | 1006 hPa | 0 mm | 1.79 m/s, 249° | 674 W/m² | - |
| 1777997567 | 23.89° C | 48% | 1005.6 hPa | 0 mm | 5.81 m/s, 179° | 681 W/m² | - |
| 1777997264 | 23.89° C | 47% | 1006 hPa | 0 mm | 1.79 m/s, 183° | 704 W/m² | - |
| 1777996962 | 23.89° C | 48% | 1006.2 hPa | 0 mm | 3.13 m/s, 176° | 701 W/m² | - |
| 1777996658 | 24.44° C | 49% | 1006.2 hPa | 0 mm | 3.13 m/s, 191° | 678 W/m² | - |
| 1777996354 | 23.89° C | 49% | 1006.3 hPa | 0 mm | 0.89 m/s, 144° | 674 W/m² | - |
| 1777996051 | 23.33° C | 50% | 1006.4 hPa | 0 mm | 3.58 m/s, 186° | 654 W/m² | - |
* Rain latest hour (hover to see other rain measurements)
** Current wind speed in m/s (hover to see current wind gust speed)